EW1895 Weather Reports


time (UTC)temp
C
wind
direction
speed
KPH
gust
KPH
rain 1hr
cm
rain 24hr
cm
rain mn
cm
humidity
%
barometer
mb
20260503191604 20 355 0.0 8.0 0.00 0.00 0.00 24 1016.7
20260503184600 19 184 0.0 11.3 0.00 0.00 0.00 27 1017.1
20260503183106 20 223 0.0 4.8 0.00 0.00 0.00 25 1017.3
20260503181556 20 250 0.0 8.0 0.00 0.00 0.00 27 1017.5
20260503180105 19 311 1.6 4.8 0.00 0.00 0.00 27 1017.5
20260503174551 19 307 1.6 8.0 0.00 0.00 0.00 27 1017.7
20260503173137 18 21 0.0 11.3 0.00 0.00 0.00 29 1017.6
20260503171548 17 256 1.6 12.9 0.00 0.00 0.00 30 1017.9
20260503100113 5 46 0.0 0.0 0.00 0.00 0.00 73 1016.7
20260503081552 7 46 0.0 0.0 0.00 0.00 0.00 63 1015.7
20260503071541 8 46 0.0 3.2 0.00 0.00 0.00 59 1015.1
20260503054533 10 348 3.2 11.3 0.00 0.00 0.00 58 1014.5
20260503051520 10 45 0.0 0.0 0.00 0.00 0.00 59 1014.4
20260503050019 10 45 0.0 3.2 0.00 0.00 0.00 59 1014.3
20260503044534 10 113 0.0 0.0 0.00 0.00 0.00 59 1014.3
20260503041518 10 113 0.0 0.0 0.00 0.00 0.00 59 1014.3
20260503040017 10 113 0.0 0.0 0.00 0.00 0.00 60 1014.2
20260503034518 10 113 0.0 0.0 0.00 0.00 0.00 62 1014.2
20260503031515 10 113 0.0 0.0 0.00 0.00 0.00 65 1014.1
20260503030017 10 113 0.0 0.0 0.00 0.00 0.00 65 1014.0
20260503024513 10 113 0.0 0.0 0.00 0.00 0.00 70 1014.1
20260503021511 10 113 0.0 0.0 0.00 0.00 0.00 68 1014.0
20260503020009 11 113 0.0 0.0 0.00 0.00 0.00 69 1014.0
20260503014506 11 113 0.0 0.0 0.00 0.00 0.00 67 1013.8
20260503011501 11 113 0.0 0.0 0.00 0.00 0.00 65 1013.5
20260503010104 12 113 0.0 0.0 0.00 0.00 0.00 63 1013.4
20260503004555 12 113 0.0 0.0 0.00 0.00 0.00 59 1013.2
20260503001552 12 113 0.0 0.0 0.00 0.00 0.00 54 1012.9
20260503000100 13 113 0.0 0.0 0.00 0.00 0.00 57 1012.7
20260502234545 13 113 0.0 0.0 0.00 0.00 0.00 53 1012.3
20260502231544 15 113 0.0 0.0 0.00 0.00 0.00 50 1012.0
20260502230036 15 113 0.0 0.0 0.00 0.00 0.00 49 1011.8
20260502224534 15 113 0.0 0.0 0.00 0.00 0.00 47 1011.7
20260502221534 15 88 0.0 0.0 0.00 0.00 0.00 45 1011.8
20260502220028 16 88 0.0 4.8 0.00 0.00 0.00 41 1011.9
20260502214527 16 62 0.0 4.8 0.00 0.00 0.00 42 1011.9
20260502211526 17 154 0.0 6.4 0.00 0.00 0.00 37 1011.9
20260502210025 17 57 0.0 4.8 0.00 0.00 0.00 37 1011.7
20260502204526 17 346 0.0 6.4 0.00 0.00 0.00 36 1011.9
20260502201624 17 346 0.0 4.8 0.00 0.00 0.00 37 1012.1
20260502200024 18 346 0.0 6.4 0.00 0.00 0.00 36 1011.9
20260502194524 18 346 0.0 4.8 0.00 0.00 0.00 36 1012.1